Content
SEND FEEDBACK

Daily
Averages
Monthly
Summary
Canada

QUEBEC CITY, QUEBEC


Home > North America > Canada > Quebec
Elevation: 72 meters     Latitude: 46 48N     Longitude: 071 23W

WEATHER
 
SELECT A DAY
Number of Records: 192,879;   Date Range: 6/30/96 - 9/21/14
 
SHARE

PRINT THIS DATA

[ ← Previous Day ]
WEATHER ALMANAC - 18 FEBRUARY, 2013
[ Next Day → ]
[ °F ]   °C
Weather ElementAverageHighLow
Temperature-11.3 °C-6 °C (3:00 pm)-17 °C (5:00 am)
Dewpoint-18.8 °C-14 °C (3:00 pm)-24 °C (6:00 am)
Humidity51.8 %61 % (5:00 am)36 % (4:00 pm)
Barometer1010.8 hPa1017.9 hPa (10:00 pm)1003.4 hPa (1:00 am)
Wind Speed32.3 km/h46.3 km/h (10:00 am)
Wind Gust61.2 km/h (10:00 am)
Weather ElementAverage
Visibility35.7 km
Wind DirectionWSW (248.4 °)

Weather ElementTotal
Precipitation---
Heating Degree Days29.8 (Base 18.3)
Averaged from 31 records on 18 February, 2013
WEATHER CONDITIONS BREAKOUT
WIND DIRECTION BREAKOUT
WEATHER BY HOUR - 18 FEBRUARY, 2013
[ °F ]   °C
Local TimeTemperatureDewpointHumidityBarometerVisibilityWind DirectionWind SpeedGust SpeedPrecipitationEventsConditions
1:00 AM-13.3 °C-19.4 °C48 %1003.4 hPaWest (270°)24.1 km/h
1:00 AM-14 °C-21 °C56 %1003.4 hPa24.1 kmWest (260°)25.9 km/h37 km/hOvercast
2:00 AM-14 °C-22 °C52 %1004.1 hPa24.1 kmWest (260°)25.9 km/hMostly Cloudy
3:00 AM-15 °C-23 °C52 %1005.1 hPa24.1 kmWest (260°)31.5 km/hScattered Clouds
4:00 AM-16.1 °C-21.1 °C53 %1005.8 hPaWest (260°)24.1 km/h
4:00 AM-16 °C-23 °C56 %1005.8 hPa24.1 kmWSW (250°)33.3 km/h48.1 km/hPartly Cloudy
5:00 AM-17 °C-23 °C61 %1006.8 hPa24.1 kmWSW (250°)38.9 km/h48.1 km/hPartly Cloudy
6:00 AM-17 °C-24 °C56 %1007.8 hPa24.1 kmWSW (240°)38.9 km/h50.1 km/hScattered Clouds
7:00 AM-16.7 °C-21.7 °C52 %1008.8 hPaWSW (250°)25.9 km/h
7:00 AM-17 °C-24 °C56 %1008.8 hPa48.3 kmWSW (250°)37 km/hPartly Cloudy
8:00 AM-16 °C-23 °C56 %1009.5 hPa48.3 kmWSW (250°)40.7 km/h51.8 km/hPartly Cloudy
9:00 AM-15 °C-22 °C56 %1009.8 hPa48.3 kmWSW (250°)31.5 km/h51.8 km/hPartly Cloudy
10:00 AM-12.8 °C-19.4 °C43 %1010.2 hPaWSW (240°)25.9 km/h
10:00 AM-13 °C-20 °C57 %1009.8 hPa48.3 kmWSW (240°)46.3 km/h61.2 km/hPartly Cloudy
11:00 AM-11 °C-19 °C53 %1010.2 hPa48.3 kmWSW (240°)46.3 km/hPartly Cloudy
12:00 PM-10 °C-18 °C53 %1010.5 hPa48.3 kmWSW (240°)38.9 km/h51.8 km/hPartly Cloudy
1:00 PM-8.3 °C-15.6 °C41 %1010.8 hPaWest (260°)27.8 km/h
1:00 PM-8 °C-16 °C53 %1010.8 hPa48.3 kmWSW (240°)42.6 km/h53.8 km/hPartly Cloudy
2:00 PM-7 °C-18 °C42 %1011.2 hPa48.3 kmWSW (240°)38.9 km/h50.1 km/hPartly Cloudy
3:00 PM-6 °C-14 °C54 %1011.9 hPa48.3 kmWSW (250°)35.2 km/h57.5 km/hPartly Cloudy
4:00 PM-6.1 °C-15 °C36 %1012.9 hPaWest (260°)24.1 km/h
4:00 PM-6 °C-15 °C50 %1012.9 hPa48.3 kmWest (260°)29.6 km/h51.8 km/hPartly Cloudy
5:00 PM-7 °C-15 °C54 %1013.9 hPa48.3 kmWSW (240°)31.5 km/h44.4 km/hPartly Cloudy
6:00 PM-7 °C-16 °C49 %1015.2 hPa24.1 kmSW (230°)37 km/h46.3 km/hClear
7:00 PM-7.2 °C-15.6 °C37 %1015.9 hPaSW (230°)22.2 km/h
7:00 PM-8 °C-16 °C53 %1015.9 hPa24.1 kmWSW (240°)33.3 km/h44.4 km/hClear
8:00 PM-9 °C-16 °C58 %1016.3 hPa24.1 kmWSW (250°)38.9 km/hClear
9:00 PM-9 °C-16 °C58 %1017.3 hPa24.1 kmWSW (250°)31.5 km/h44.4 km/hClear
10:00 PM-9.4 °C-16.1 °C46 %1017.6 hPaWSW (250°)20.4 km/h
10:00 PM-10 °C-17 °C57 %1017.9 hPa24.1 kmWSW (250°)29.6 km/hClear
11:00 PM-10 °C-17 °C57 %1017.9 hPa24.1 kmWSW (240°)24.1 km/hClear
Hourly data recorded from CYQB, located 0 kilometers away from Quebec City, Quebec







STORIES FROM OUR PARTNERS